Location: Arboucave
(43.6130°N, 0.4343°W)
Time: 12:52:50
(UTC+00:00)

Okean 2 Rocket - Pass Details

Date: 17 November 2025
Orbit: 611 x 635 km, 82.5° (Epoch: 10 December)

Event Time Altitude Azimuth Distance (km) Brightness Sun altitude
Rises 18:28:16 0° 188° (S) 2,887 6.7 -20.5°
Reaches altitude 10° 18:30:29 10° 188° (S) 1,981 5.8 -20.9°
Maximum altitude 18:34:53 86° 279° (W) 625 3.0 -21.7°
Enters shadow 18:37:52 20° 7° (N) 1,426 4.8 -22.2°
